Simultaneous Nadir Overpasses (SNOs) Predictions

Prediction of SNOs between AQUA and NPP Satellite Orbit:

Table of predicted SNOs for the next 14.0 days since TLE Epoch: 4/13/2024
Index Date (AQUA) Time (AQUA) Lat,Lon (AQUA) SZA (AQUA ) Date (NPP) Time (NPP) Lat,Lon (NPP) SZA (NPP ) Distance(km) Time Diff (sec)
1 04/14/2024 02:18:39 -81.20,-113.12 101.19 04/14/2024 02:18:39 -81.20,-113.05 101.20 1.36 0
2 04/16/2024 14:23:03 81.19,-114.33 77.93 04/16/2024 14:21:51 81.19,-114.26 77.96 1.18 72
3 04/16/2024 15:12:25 -81.21, 53.74 102.15 04/16/2024 15:12:34 -81.21, 53.89 102.18 2.52 9
4 04/19/2024 03:16:48 81.20, 52.52 76.99 04/19/2024 03:15:46 81.20, 52.59 77.02 1.22 62
5 04/19/2024 04:06:10 -81.23,-139.40 103.09 04/19/2024 04:06:29 -81.22,-139.22 103.13 3.01 19
6 04/21/2024 16:10:33 81.20,-141.01 76.13 04/21/2024 16:09:42 81.20,-140.99 76.16 0.58 51
7 04/21/2024 16:59:55 -81.22, 27.07 103.95 04/21/2024 17:00:25 -81.22, 27.23 103.99 2.59 30
8 04/24/2024 05:04:15 81.21, 25.84 75.24 04/24/2024 05:03:36 81.21, 25.77 75.27 1.29 39
9 04/24/2024 05:53:37 -81.23,-166.08 104.84 04/24/2024 05:54:19 -81.23,-166.00 104.88 1.42 42
10 04/26/2024 17:57:57 81.22,-167.32 74.37 04/26/2024 17:57:30 81.22,-167.15 74.37 2.81 27



Historial Predications of SNOs between AQUA and NPP
